AirNav   Air Wisconsin pilot careers
 
 447 users online  

1U3 Murphy Airport
Murphy, Idaho, USA

GOING TO MURPHY?


FAA INFORMATION EFFECTIVE 26 APRIL 2018

Location

FAA Identifier: 1U3
Lat/Long: 43-12-57.4000N / 116-32-54.1000W
43-12.956667N / 116-32.901667W
43.2159444 / -116.5483611
(estimated)
Elevation: 2855 ft. / 870 m (estimated)
Variation: 17E (1985)
Time zone: UTC -6 (UTC -7 during Standard Time)
Zip code: 83650

Airport Operations

Airport use: Open to the public
Activation date: 04/1956
Control tower: no
ARTCC: SALT LAKE CITY CENTER
FSS: BOISE FLIGHT SERVICE STATION
NOTAMs facility: BOI (NOTAM-D service available)
Attendance: UNATNDD
CTC SHERIFF'S OFC IN COURTHOUSE ACROSS HWY FM ARPT FOR ASSISTANCE
Wind indicator: yes
Segmented circle: no

Airport Communications

CTAF: 122.9

Nearby radio navigation aids

VOR radial/distance  VOR name  Freq  Var
BOIr201/25.5BOISE VORTAC113.3017E
LIAr274/(36.7)LIBERATOR VOR114.9018E

Airport Services

Parking: tiedowns
Airframe service: NONE
Powerplant service: NONE
Bottled oxygen: NONE
Bulk oxygen: NONE

Runway Information

Runway 12/30

Dimensions: 2500 x 45 ft. / 762 x 14 m
Surface: asphalt, in good condition
Runway edge markings: THLDS MKD WITH PAINTED ROCKS.
Operational restrictions: RCMD LAND RY 12 TKOF RY 30 WHEN WIND COND PERMITS.
RUNWAY 12  RUNWAY 30
Latitude: 43-13.103000N43-12.811500N
Longitude: 116-33.100333W116-32.703000W
Traffic pattern: leftleft
Markings: numbers only, in fair conditionnumbers only, in fair condition
Obstructions: 5 ft. road, 200 ft. from runway
+3 FT FENCE 20 FT FM RY END 60 FT L; +10 FT ROAD 0' FM RY END 100 FT R; +6 FT SIGN AT 20 FT 80 FT R.
18 ft. road, 200 ft. from runway, 100 ft. left of centerline
+17 FT RD 0 FT FM RY END 100 FT L; +10 FT ROAD AT 50 FT ON CNTRLN.

Airport Ownership and Management from official FAA records

Ownership: Publicly-owned
Owner: OWYHEE COUNTY
P.O. BOX 128
MURPHY, ID 83650
Phone 208-495-2421
Manager: JIM DESMOND
2773 N HAVEN
EAGLE, ID 83616
Phone 208-938-1270

Airport Operational Statistics

Aircraft operations: avg 39/week *
99% transient general aviation
1% military
* for 12-month period ending 28 April 2017

Additional Remarks

NUMEROUS SIGNS TO +12' ON BOTH SIDES OF HIGHWAY ADJACENT TO RY.
RY 30 HAS 150 FT PLINE & TERRAIN AT 3000 FT ON CNTRLN.

Instrument Procedures

There are no published instrument procedures at 1U3.

Some nearby airports with instrument procedures:

KMAN - Nampa Municipal Airport (22 nm N)
KBOI - Boise Air Terminal/Gowen Field (25 nm NE)
KEUL - Caldwell Industrial Airport (26 nm N)
KMUO - Mountain Home Air Force Base (31 nm E)
U76 - Mountain Home Municipal Airport (36 nm E)
 
Loc | Ops | Rwys | IFR | FBO | Links
Com | Nav | Svcs | Stats | Notes

AirNav Hotels Sweepstakes
 
Area around 1U3 (Murphy Airport)
 
Road maps at: MapQuest Bing Google
 
Aerial photo
WARNING: Photo may not be current or correct
Aerial photo of 1U3 (Murphy Airport)
Do you have a better or more recent aerial photo of Murphy Airport that you would like to share? If so, please send us your photo.

 
Sectional chart

 
Airport distance calculator
Flying to Murphy Airport? Find the distance to fly.

From to 1U3

Sunrise and sunset
Times for 20-May-2018
 Local
(UTC-6)
 Zulu
(UTC)
Morning civil twilight05:4511:45
Sunrise06:1812:18
Sunset21:0703:07
Evening civil twilight21:4103:41

Current date and time
Zulu (UTC)  21-May-2018 05:54:17
Local (UTC-6)  20-May-2018 23:54:17
 
METAR
KMAN 
22nm N 
210535Z AUTO 00000KT 10SM FEW048 SCT080 15/15 A2988 RMK A01
KEUL 
24nm N 
210456Z AUTO 00000KT 10SM FEW046 SCT065 OVC085 16/12 A2989 RMK AO2 RAE24 SLP108 P0000 T01560122
KBOI 
25nm NE 
210453Z 19003KT 10SM BKN070 BKN090 OVC110 14/12 A2990 RMK AO2 RAE13 SLP110 P0000 T01440122 $
KMUO 
32nm E 
210458Z AUTO 18006KT 10SM -RA SCT065 OVC085 14/14 A2991 RMK AO2 RAE47DZB47E57RAB57 SLP118 P0000 T01350135 $
U76 
36nm E 
SuperAWOS
210455Z AUTO 02007KT 10SM 13/13 A2988
TAF
KEUL 
24nm N 
210327Z 2103/2124 VRB05KT P6SM VCSH OVC060 TEMPO 2103/2106 -SHRA OVC050 FM210600 VRB05KT P6SM BKN120
KBOI 
25nm NE 
210247Z 2103/2124 26007KT P6SM VCTS SCT050CB OVC100 TEMPO 2103/2104 VRB15G25KT -SHRA OVC050 FM210400 VRB05KT P6SM BKN120 FM211500 28006KT P6SM BKN120
NOTAMs
Click for the latest NOTAMs
NOTAMs are issued by the DoD/FAA and will open in a separate window not controlled by AirNav.

 

 
 

Would you like to see your business listed on this page?

 If your business provides an interesting product or service to pilots, flight crews, aircraft, or users of the Murphy Airport, you should consider listing it here.  To start the listing process, click on the button below
 
Add a business
 

Other Pages about Murphy Airport

Update a link
 
Copyright © AirNav, LLC. All rights reserved. Privacy Policy  Contact